Location: Godiavel Galaoual
(15.2485°N, 12.6604°W)
Time: 19:41:20
(UTC+00:00)

X-37B - Visible Passes

Search period start: 07 March 2021 00:00
Search period end: 17 March 2021 00:00
Orbit: 383 x 391 km, 45.0° (Epoch: 27 February)

Date Brightness Start Highest point End Pass type
(mag) Time Alt. Az. Time Alt. Az. Time Alt. Az.
07 Mar 4.1 05:03:05 11° ENE 05:03:05 11° ENE 05:03:25 10° ENE visible
07 Mar 1.7 06:35:34 10° WNW 06:38:17 27° SW 06:41:00 10° SSE visible
07 Mar 0.5 19:48:23 10° SW 19:51:35 83° SE 19:53:37 20° NE visible
08 Mar 1.1 05:40:38 53° SSE 05:40:38 53° SSE 05:43:08 10° SE visible
08 Mar 3.4 20:28:07 10° WNW 20:29:52 14° NW 20:31:10 12° NNW visible
09 Mar 3.0 06:18:15 10° SW 06:18:15 10° SW 06:18:29 10° SW visible
09 Mar 2.3 19:28:32 10° WSW 19:31:26 32° NW 19:34:21 10° NNE visible
